Regional Weather Roundup
Issued by NWS

Home | Current Version | Previous Version | Graphics & Text | Print | Product List | Glossary On
Versions: 1 2 3 4 5 6 7 8 9 10 11 12 13 14 15 16 17 18 19 20 21 22 23 24 25 26 27
000
ASUS45 KBOU 241907
RWRCO

WEATHER ROUNDUP FOR COLORADO
NATIONAL WEATHER SERVICE DENVER/BOULDER CO
1200 PM MST FRI FEB 24 2017

NOTE: "FAIR" INDICATES FEW OR NO CLOUDS BELOW 12000 FEET WITH NO
SIGNIFICANT WEATHER AND/OR OBSTRUCTIONS TO VISIBILITY.

COZ001>005-013-030-031-242000-
...NORTHWEST COLORADO...

CITY           SKY/WX    TMP DP  RH WIND       PRES   REMARKS
CRAIG          LGT SNOW  20  11  68 W8        29.94R WCI  10
HAYDEN         FAIR      18   9  68 W10       29.91S WCI   6
MEEKER         LGT SNOW  24  17  74 N8        29.91S WCI  15
MOUNT WERNER   NOT AVBL
STEAMBOAT SPGS CLOUDY    19  10  66 SW5       29.89R WCI  13
WALDEN         NOT AVBL
$$

COZ006>008-011-242000-
...WEST CENTRAL VALLEYS...

CITY           SKY/WX    TMP DP  RH WIND       PRES   REMARKS
GRAND JUNCTION FAIR      36   9  32 NW13      29.95S
MONTROSE       CLOUDY    28  14  55 CALM      29.96S
EAGLE          MOSUNNY   30   9  40 W14       29.87F WCI  20
RIFLE          CLOUDY    31  18  58 VRB3      29.92R
DELTA          FAIR      37   6  27 W14G24    29.93S
NUCLA          LGT SNOW  30  18  59 W10G20    29.98S WCI  21
$$

COZ017>023-064>068-242000-
...SOUTHWEST COLORADO...

CITY           SKY/WX    TMP DP  RH WIND       PRES   REMARKS
DURANGO        CLOUDY    29   9  43 W15G30    29.91F WCI  18
CORTEZ         PTSUNNY   31  12  45 W20G25    29.95R WCI  19
PAGOSA SPRINGS LGT SNOW  22  12  66 W10G18    29.88S WCI  11
TELLURIDE      LGT SNOW  14   9  79 NW6G17    29.86R VSB 1   WCI   5
WOLF CREEK PAS LGT SNOW   5   3  92 S20G28    29.77S WCI -15
$$

COZ009-010-012-014-032>034-037-058>063-242000-
...CENTRAL COLORADO...

CITY           SKY/WX    TMP DP  RH WIND       PRES   REMARKS
ASPEN          PTSUNNY   21   9  59 NW9       29.81S WCI  11
BUENA VISTA    PTSUNNY   28  -4  24 W18G26    29.78R WCI  15
COPPER MTN     NOT AVBL
BERTHOUD PASS  SNOW      -4 -13  65 N16G26    29.62S VSB 1/4 WCI -25
COTTONWOOD PAS PTSUNNY   19  -9  27 SW10G33   29.73R WCI   8
GUNNISON       FAIR      18   8  65 CALM      29.87S
KREMMLING      CLOUDY    28  12  50 W3        29.83F
LEADVILLE      FAIR      12  -5  46 W15G22    29.73R WCI  -4
MONARCH PASS     N/A      3   0  85 W26G37    29.79S WCI -20
SALIDA         FAIR      30   0  28 W12       29.87S WCI  20
SUNLIGHT       NOT AVBL
WILKERSON PASS CLOUDY    10   3  72 W3        29.71S
$$

COZ069>075-242000-
...SAN LUIS VALLEY/SANGRE DE CRISTO MOUNTAINS...

CITY           SKY/WX    TMP DP  RH WIND       PRES   REMARKS
ALAMOSA        CLOUDY    25   9  50 SW16      29.82F WCI  12
LA VETA PASS   CLOUDY    18  -4  38 W9G18     29.75F WCI   6
SAGUACHE       PTSUNNY   27  -2  28 NW16G22   29.81S WCI  14
$$

COZ035-036-038>040-242000-
...NORTHERN COLORADO FRONT RANGE...

CITY           SKY/WX    TMP DP  RH WIND       PRES   REMARKS
DENVER INTL AP LGT SNOW  22  13  68 CALM      29.94F
DMNS CITY PARK   N/A     22  12  64 MISG      29.94F
AURORA         PTSUNNY   21  15  76 CALM      29.94S
FRONT RANGE AP LGT SNOW  23  18  80 N7        29.95  WCI  15
ERIE MUNI ARPT CLOUDY    25  15  64 CALM      29.96F
BOULDER MUN AP PTSUNNY   28  14  54 NE7       29.95S WCI  21
CENTENNIAL     CLOUDY    21  12  68 N5        29.92S WCI  15
BROOMFIELD     PTSUNNY   23  16  74 CALM      29.94S
FORT COLLINS   FAIR      30  15  53 E6        29.98S WCI  24
LONGMONT       CLOUDY    28  16  61 CALM      29.98F
$$

COZ041-046-047-076>085-087-088-242000-
...PIKES PEAK/PALMER DIVIDE AND SOUTHERN FOOTHILLS...

CITY           SKY/WX    TMP DP  RH WIND       PRES   REMARKS
COLO. SPRINGS  PTSUNNY   26   7  44 VRB6      29.89F WCI  19
A. F. ACADEMY  MIX PCPN  21   9  58 N6        29.87S WCI  14
SCHRIEVER AFB  PTSUNNY   22   8  53 N8        29.90  WCI  13
ELLICOTT       PTSUNNY  N/A N/A N/A NE10      29.88F
FALCON         CLOUDY    20  10  63 N6        29.88S WCI  13
FORT CARSON    FAIR      26   6  43 SE5       29.89F WCI  20
LIMON          CLOUDY    21  15  78 N9        29.94S WCI  11
MONUMENT HILL  CLOUDY    18  10  73 N5        29.88S WCI  11
TRINIDAD       FAIR      28  12  51 CALM      29.91F
$$

COZ042>045-048>051-090-091-242000-
...NORTHEAST COLORADO...

CITY           SKY/WX    TMP DP  RH WIND       PRES   REMARKS
GREELEY ARPT   CLOUDY    25  17  72 SE5       30.00F WCI  19
AKRON          LGT SNOW  22  18  85 N12       29.97F VSB 1   WCI  10
BURLINGTON     CLOUDY    26  19  74 N17       29.97S WCI  13
WRAY           NOT AVBL
STERLING       LGT SNOW  27  21  80 NE5       30.01S WCI  21
HOLYOKE        FAIR      30  23  74 N8        30.01F WCI  23
FORT MORGAN    PTSUNNY   26  18  72 NE6       30.01S WCI  19
$$

COZ086-089-092>099-242000-
...SOUTHEAST COLORADO...

CITY           SKY/WX    TMP DP  RH WIND       PRES   REMARKS
PUEBLO         CLOUDY    31  11  43 VRB3      29.95F
LA JUNTA       CLOUDY    36  13  38 N10       29.97F
LAMAR          FAIR      35  14  42 NW13G22   29.96F WCI  26
SPRINGFIELD      N/A     35  15  44 N20       29.94S WCI  24
$$




USA.gov is the U.S. government's official web portal to all federal, state and local government web resources and services.